Location: Allaines
(49.9632°N, 2.9458°E)
Time: 08:47:55
(UTC+00:00)

Daily predictions for brighter satellites

Satellite Brightness Start Highest point End
(mag) Time Altitude Azimuth Time Altitude Azimuth Time Altitude Azimuth
IRIDIUM 103 4.4 18:58:08 10° N 19:03:24 84° E 19:08:38 10° S
SL-08 RB Rocket 4.1 18:59:12 10° SE 19:03:32 45° ENE 19:07:58 10° N
Cosmos 921 Rocket 3.5 19:00:40 10° N 19:04:39 40° ENE 19:08:37 10° SE
Cosmos 1703 3.3 19:01:18 10° N 19:05:16 66° ENE 19:09:12 10° SSE
SL-4 R/B 1.5 19:02:53 10° WSW 19:06:16 66° SSE 19:09:41 10° ENE
Cosmos 1726 2.1 19:03:31 10° S 19:07:16 89° E 19:11:01 10° N
Cosmos 1437 3.5 19:04:33 10° NNW 19:07:31 52° W 19:10:27 10° S
Cosmos 2184 Rocket 4.1 19:01:22 10° N 19:07:42 86° E 19:13:56 10° S
CZ-4C R/B 4.1 19:02:29 10° NW 19:07:59 29° NNE 19:14:20 10° ENE
ADEOS Rocket 3.7 19:02:13 10° N 19:08:31 60° WNW 19:14:11 10° SSW
Cosmos 1825 Rocket 3.6 19:04:12 10° N 19:08:37 87° WSW 19:12:58 10° S
Meteor 2-10 4.2 19:03:42 10° S 19:09:14 85° E 19:14:58 10° NNE
STARLINK-1246 3.9 19:05:40 10° WNW 19:09:49 66° NNE 19:13:56 10° E
Cosmos 407 Rocket 3.7 19:05:41 10° S 19:10:35 47° ESE 19:15:30 10° NNE
Cosmos 1908 3.4 19:07:18 10° S 19:11:02 49° E 19:14:50 10° NNE
STARLINK-1201 3.0 19:07:57 10° WNW 19:11:13 88° SSW 19:14:29 10° ESE
Cosmos 1656 Rocket 4.2 19:05:46 10° NW 19:11:22 63° WSW 19:16:52 10° SSE
Cosmos 1340 Rocket 3.5 19:07:52 10° SSE 19:11:31 34° E 19:15:10 10° NNE
Cosmos 1328 3.8 19:07:57 10° N 19:11:59 75° E 19:15:58 10° SSE
FREGAT/IRIS 2.2 19:09:30 10° SSE 19:12:12 77° ENE 19:14:57 10° N
Cosmos 2228 3.0 19:09:15 10° S 19:13:30 64° E 19:17:50 10° NNE
STARLINK-1224 3.8 19:10:41 10° WNW 19:14:50 68° NNE 19:18:58 10° E
STARLINK-1203 3.8 19:12:49 10° WNW 19:17:02 72° NNE 19:21:13 10° E
Cosmos 1943 3.5 19:11:47 10° SW 19:17:27 76° WNW 19:23:11 10° NNE
MOS 1 4.3 19:13:57 10° SSE 19:19:36 87° ENE 19:25:20 10° NNW
STARLINK-1225 3.8 19:15:41 10° WNW 19:19:49 70° NNE 19:23:51 11° E
MetOp-A 4.4 19:15:20 10° SE 19:20:30 52° ENE 19:25:42 10° N
Resurs 01 Rocket 2.6 19:18:02 10° SE 19:21:54 31° ENE 19:25:49 10° N
MOS 1 Rocket 4.4 19:17:14 10° NNE 19:22:03 31° E 19:26:51 10° SSE
STARLINK-52 3.8 19:19:53 10° SSW 19:22:45 31° SE 19:25:39 10° E
Cosmos 1758 Rocket 4.4 19:19:08 10° NNW 19:23:22 53° W 19:27:33 10° S
CZ-2C R/B 3.4 19:18:55 10° NE 19:23:23 28° E 19:27:51 10° SSE
STARLINK-1230 3.7 19:20:39 10° WNW 19:24:48 73° NNE 19:28:37 12° ESE
Nadezhda 1 Rocket 4.0 19:19:34 10° S 19:25:54 69° E 19:32:12 10° NNE
BREEZE M DEB (TANK) 4.0 19:23:24 10° S 19:26:08 22° ESE 19:31:29 10° ENE
Cosmos 1697 Rocket 4.3 19:23:58 10° N 19:28:13 21° NE 19:32:28 10° E
SPOT 3 Rocket 3.6 19:24:24 10° SSE 19:29:33 64° ENE 19:34:43 10° N
STARLINK-1243 3.7 19:25:37 10° WNW 19:29:46 75° NNE 19:33:24 13° ESE
SL-24 R/B - RUBIN 2 4.3 19:24:12 10° SSW 19:29:48 66° ESE 19:36:07 10° NE
Cosmos 2154 Rocket 4.0 19:24:19 10° N 19:30:44 84° E 19:37:03 10° S
ARGOS 3.3 19:25:38 10° SSE 19:31:02 80° WSW 19:36:27 10° NNW
FALCON 9 DEB 3.7 19:27:47 10° SW 19:31:04 38° SE 19:34:21 10° ENE
Cosmos 1953 Rocket 3.8 19:27:12 10° NNW 19:31:42 76° W 19:36:10 10° S
Cosmos 1606 Rocket 3.8 19:28:46 10° SSW 19:33:13 78° W 19:37:43 10° N
NOSS 3-4 (A) 4.3 19:26:42 10° NW 19:33:33 63° SW 19:41:07 10° SSE
NOSS 3-4 (C) 4.3 19:26:48 10° NW 19:33:40 64° SW 19:41:14 10° SSE
STARLINK-1236 3.7 19:30:36 10° WNW 19:34:46 78° NNE 19:38:11 15° ESE
Cosmos 1954 Rocket 4.4 19:31:00 10° S 19:35:51 40° ESE 19:40:42 10° NE
USA 186 2.7 19:33:20 10° S 19:36:31 50° W 19:39:33 10° NNW
STARLINK-67 4.3 19:35:26 10° W 19:37:30 22° SW 19:39:24 11° SSE
Cosmos 1953 4.4 19:36:07 10° SW 19:39:41 31° WNW 19:43:19 10° N
Meteor 1-11 4.4 19:36:03 10° NNW 19:41:50 79° W 19:47:29 10° S
Cosmos 1818 4.3 19:38:19 10° SW 19:43:41 59° NW 19:49:06 10° NE
Cosmos 1076 Rocket 4.5 19:40:06 10° N 19:43:52 29° ENE 19:46:20 17° ESE
STARLINK-1269 3.6 19:40:33 10° WNW 19:44:44 85° NNE 19:47:44 18° ESE
Cosmos 1763 Rocket 4.3 19:43:26 10° N 19:48:13 35° NE 19:51:29 18° ESE
STARLINK-1200 3.6 19:45:32 10° WNW 19:49:42 88° NNE 19:52:31 20° ESE
STARLINK-1234 4.1 19:51:14 10° W 19:54:05 33° SW 19:55:47 19° SSE
STARLINK-1209 4.2 19:51:43 10° W 19:54:32 31° SW 19:56:15 18° SSE
STARLINK-1192 3.6 19:50:31 10° WNW 19:54:41 88° SSW 19:57:18 22° ESE
STARLINK-1233 3.7 19:52:02 10° WNW 19:55:01 41° SSW 19:56:38 22° SSE
STARLINK-1212 3.7 19:52:30 10° WNW 19:55:29 41° SSW 19:57:04 22° SSE
STARLINK-1105 3.7 19:52:55 10° WNW 19:55:55 41° SSW 19:57:31 22° SSE
Cosmos 1455 4.3 19:56:32 13° ENE 19:56:32 13° ENE 19:57:45 10° NE
STARLINK-1206 3.7 19:53:24 10° WNW 19:56:22 40° SSW 19:57:55 22° SSE
STARLINK-1247 3.7 19:53:52 10° WNW 19:56:50 40° SSW 19:58:22 23° SSE
SeaSat 1 3.7 19:52:11 10° NNE 19:56:54 46° NW 20:01:35 10° WSW
STARLINK-1227 3.7 19:54:16 10° WNW 19:57:15 40° SSW 19:58:47 23° SSE
Iridium 4 Rocket 3.9 19:53:49 10° NNE 19:57:29 29° ENE 19:59:05 22° ESE
STARLINK-1218 3.7 19:54:46 10° WNW 19:57:44 39° SSW 19:59:13 23° SSE
STARLINK-1226 3.8 19:55:13 10° WNW 19:58:10 39° SSW 19:59:40 23° SSE
Cosmos 1980 Rocket 3.9 19:54:15 10° N 19:58:22 20° NE 20:02:02 12° E
STARLINK-1254 3.8 19:55:39 10° WNW 19:58:37 39° SSW 20:00:06 23° SSE
STARLINK-1215 3.8 19:56:08 10° WNW 19:59:05 38° SSW 20:00:32 23° SSE
STARLINK-1231 3.8 19:56:35 10° WNW 19:59:32 38° SSW 20:00:58 23° SSE
Cosmos 1174 4.2 19:55:36 10° NNW 19:59:35 62° NE 20:02:39 22° SE
STARLINK-1244 3.6 19:55:35 10° WNW 19:59:45 84° SSW 20:02:10 24° ESE
USA 234 4.1 19:54:44 10° ENE 19:59:52 24° SE 20:04:58 10° S
STARLINK-1232 3.8 19:57:30 10° WNW 20:00:26 38° SSW 20:01:50 23° SSE
Cosmos 1892 3.7 19:57:19 10° N 20:00:50 31° ENE 20:02:12 24° ESE
STARLINK-1217 3.8 19:57:56 10° WNW 20:00:53 37° SSW 20:02:16 23° SSE
Abrixas rocket 3.3 19:58:31 10° W 20:01:07 28° SSW 20:02:07 22° SSE
STARLINK-1208 3.8 19:58:22 10° WNW 20:01:19 37° SSW 20:02:43 23° SSE
STARLINK-1229 3.9 19:58:51 10° WNW 20:01:46 37° SSW 20:03:07 24° SSE
STARLINK-1271 3.9 19:59:18 10° WNW 20:02:13 37° SSW 20:03:34 24° SSE
STARLINK-1270 3.9 19:59:46 10° WNW 20:02:41 36° SSW 20:04:00 24° SSE
STARLINK-1154 3.9 20:00:13 10° WNW 20:03:08 36° SSW 20:04:26 24° SSE
STARLINK-1197 3.9 20:01:07 10° WNW 20:04:01 35° SW 20:05:18 24° SSE
STARLINK-1189 3.9 20:01:34 10° WNW 20:04:28 35° SSW 20:05:43 24° SSE
STARLINK-1138 3.6 20:00:29 10° WNW 20:04:39 80° SSW 20:06:52 26° ESE
H-2A R/B 3.5 19:59:57 10° SSW 20:04:41 36° W 20:09:20 10° NNW
STARLINK-1198 3.9 20:02:02 10° WNW 20:04:56 35° SSW 20:06:10 24° SSE
ATLAS 5 CENTAUR R/B 1.6 20:00:50 10° SW 20:05:02 84° NW 20:09:53 10° NE
Cosmos 1825 4.0 20:02:49 10° NNE 20:05:13 16° ENE 20:05:39 16° ENE
STARLINK-1188 4.0 20:02:27 10° WNW 20:05:21 35° SW 20:06:35 24° SSE
ATLAS 2AS CENTAUR R/B 3.9 19:58:32 10° NW 20:05:27 41° WSW 20:11:50 10° S
STARLINK-1235 4.3 20:03:12 10° W 20:05:58 29° SW 20:07:18 21° S
STARLINK-1187 4.2 20:03:34 10° W 20:06:26 31° SW 20:07:42 22° S
STARLINK-1199 4.0 20:04:25 10° W 20:07:19 34° SW 20:08:31 24° S
STARLINK-1191 4.0 20:04:52 10° W 20:07:46 34° SW 20:08:56 25° S
STARLINK-1210 4.0 20:05:20 10° W 20:08:13 33° SW 20:09:23 25° S
STARLINK-1221 4.0 20:05:47 10° W 20:08:40 33° SW 20:09:49 25° S
COSMOS 2455 3.3 20:02:50 10° NW 20:08:47 60° WSW 20:13:57 14° SSE
STARLINK-1219 4.1 20:06:14 10° W 20:09:07 33° SW 20:10:15 25° S
STARLINK-1222 4.1 20:06:41 10° W 20:09:34 33° SW 20:10:40 25° S
STARLINK-1143 3.6 20:05:28 10° WNW 20:09:37 76° SSW 20:11:39 29° SE
STARLINK-1211 4.1 20:07:09 10° W 20:10:01 32° SW 20:11:07 25° S
STARLINK-1214 4.1 20:07:36 10° W 20:10:28 32° SW 20:11:33 25° S
STARLINK-1245 4.1 20:08:05 10° W 20:10:55 32° SW 20:11:57 25° S
STARLINK-1238 4.1 20:08:30 10° W 20:11:21 32° SW 20:12:25 25° S
STARLINK-1205 4.1 20:09:27 10° W 20:12:16 31° SW 20:13:16 25° S
Cosmos 1140 Rocket 3.7 20:07:28 10° SSW 20:12:39 75° WNW 20:17:50 10° NNE
STARLINK-1204 4.1 20:09:54 10° W 20:12:43 31° SW 20:13:42 25° S
ERBS 2.2 20:09:46 10° WNW 20:13:09 84° SW 20:14:20 38° SE
STARLINK-1241 3.6 20:10:29 10° WNW 20:14:38 72° SSW 20:16:28 31° SE
STARLINK-29 2.8 20:15:09 10° WSW 20:18:21 83° SSE 20:19:44 31° ENE
STARLINK-1239 3.7 20:15:27 10° WNW 20:19:34 68° SSW 20:21:14 34° SE
SAR-Lupe-2 3.8 20:17:05 10° NNE 20:20:32 44° E 20:21:14 38° SE
ATLAS CENTAUR R/B 2.6 20:17:20 10° NNW 20:20:46 28° NE 20:22:10 22° ENE
IGS 5A 4.1 20:20:27 31° ESE 20:21:41 39° ENE 20:25:35 10° N
Cosmos 1300 2.8 20:19:09 10° SSW 20:22:57 76° W 20:26:48 10° N
Resurs 1-3 4.3 20:18:54 10° S 20:23:09 52° W 20:27:28 10° NNW
STARLINK-1240 3.7 20:20:26 10° WNW 20:24:33 64° SSW 20:26:01 37° SE
Spot 2 Rocket 3.5 20:22:15 26° SE 20:25:02 64° ENE 20:30:07 10° N
STARLINK-60 3.4 20:22:58 10° W 20:26:13 61° NNW 20:27:47 27° ENE
Cosmos 841 Rocket 4.1 20:22:27 10° NNW 20:27:29 42° ENE 20:29:32 29° ESE
Cosmos 1850 Rocket 4.2 20:24:21 19° S 20:27:46 45° ESE 20:32:41 10° NE
In-Cosmos 22 Rocket 4.2 20:22:50 10° NNW 20:28:44 87° ENE 20:32:45 21° SSE
STARLINK-1216 3.8 20:25:25 10° WNW 20:29:30 60° SSW 20:30:47 39° SSE
Terra 3.1 20:29:53 23° E 20:31:01 25° ENE 20:34:54 10° N
Cosmos 2082 Rocket 4.1 20:34:09 13° ENE 20:34:09 13° ENE 20:35:23 10° ENE
SPOT 5 3.6 20:31:40 28° E 20:32:28 30° ENE 20:36:15 10° N
STPSAT 2 (USA 217) 4.4 20:28:45 10° SSW 20:33:13 79° ESE 20:37:44 10° NNE
STARLINK-1237 3.9 20:30:23 10° WNW 20:34:27 57° SSW 20:35:33 41° SSE
Meteor 2-10 Rocket 4.2 20:33:52 32° ESE 20:34:57 36° E 20:39:53 10° NNE
MetOp-B 4.1 20:32:14 25° SSE 20:35:29 88° ENE 20:40:53 10° NNW
Cosmos 1833 Rocket 3.7 20:39:02 26° E 20:39:02 26° E 20:43:03 10° NE
STARLINK-1202 3.9 20:35:23 10° WNW 20:39:26 53° SSW 20:40:21 43° SSE
Cosmos 468 Rocket 3.9 20:34:56 10° NNW 20:40:07 83° WSW 20:42:31 33° SSE
CARTOSAT-1 4.2 20:39:31 34° E 20:40:12 37° ENE 20:44:11 10° N
SL-4 R/B 1.8 20:42:29 10° W 20:45:52 64° N 20:46:33 50° NE
Cosmos 1408 2.7 20:43:17 10° N 20:46:55 55° ENE 20:46:55 55° ENE
ERS-1 Rocket 3.2 20:47:01 40° ESE 20:48:26 54° ENE 20:53:20 10° N
STARLINK-1246 4.1 20:45:22 10° WNW 20:49:21 47° SSW 20:49:54 43° S
RESURS DK-1 2.3 20:45:26 10° NNW 20:49:35 70° ENE 20:50:15 58° ESE
Cosmos 1766 Rocket 3.9 20:48:08 10° N 20:52:28 46° ENE 20:52:50 44° E
Cosmos 1570 Rocket 4.0 20:47:26 10° NNW 20:52:50 75° ENE 20:54:32 44° SE
BREEZE M DEB (TANK) 2.7 20:46:32 10° WSW 20:53:09 68° SSE 20:53:25 64° SE
Okean 3 Rocket 3.7 20:49:40 10° N 20:54:03 56° ENE 20:54:34 52° ESE
Meteor 2-12 Rocket 4.4 20:48:10 10° N 20:54:18 86° W 20:57:32 30° S
STARLINK-1224 4.1 20:50:23 10° WNW 20:54:20 44° SW 20:54:43 42° SSW
Cosmos 2058 3.4 20:51:47 10° NNW 20:55:49 55° W 20:57:23 33° SSW
STARLINK-1203 4.3 20:52:46 10° WNW 20:56:43 40° SW 20:57:04 39° SSW
CZ-4C R/B 3.2 20:51:10 10° NW 20:57:56 58° NE 21:01:49 30° ESE
COSMOS 2406 3.2 20:54:53 26° S 20:57:59 60° ESE 21:03:38 10° NE
Resurs 01 Rocket 3.0 20:55:17 15° SSW 20:58:21 34° W 21:02:24 10° NNW
STARLINK-52 3.4 20:55:34 10° W 20:58:28 61° NW 20:58:28 61° NW
STARLINK-1225 4.3 20:55:24 10° WNW 20:59:18 41° SW 20:59:30 40° SSW
Cosmos 2218 Rocket 4.4 20:56:36 10° NNW 21:02:42 60° W 21:07:06 20° SSW
CZ-2C R/B 3.5 20:58:57 10° N 21:03:54 47° WNW 21:08:51 10° SW
STARLINK-1230 4.4 21:00:23 10° WNW 21:04:14 38° SW 21:04:17 38° SW
Cosmos 1812 Rocket 4.1 21:02:25 21° SSW 21:05:10 57° WNW 21:09:27 10° N
Cosmos 2151 2.7 21:03:03 10° N 21:07:17 83° ENE 21:07:34 76° SE
FALCON 9 DEB 3.5 21:04:34 10° W 21:07:53 63° NNW 21:07:53 63° NNW
Cosmos 1697 Rocket 2.6 21:07:23 10° NNW 21:13:07 81° ENE 21:14:28 54° SE
Cosmos 2369 3.6 21:07:32 10° NNW 21:13:14 80° ENE 21:14:34 54° SE
Cosmos 1741 Rocket 4.3 21:21:15 15° SW 21:25:43 69° WNW 21:31:04 10° NNE
Landsat 7 4.4 21:25:10 40° SW 21:26:23 50° W 21:31:03 10° NNW
Cosmos 1763 Rocket 4.4 21:25:17 10° NW 21:30:05 39° WSW 21:31:31 32° SW
Cosmos 1455 2.7 21:31:25 57° NW 21:31:25 57° NW 21:34:55 10° N
Cosmos 1656 4.3 21:25:55 10° NW 21:31:20 47° WSW 21:32:50 38° SSW
Cosmos 1408 Rocket 3.7 21:27:20 10° N 21:31:22 64° NE 21:31:22 64° NE
SPOT 1/Viking Rocket 4.0 21:30:44 41° SSW 21:32:10 55° W 21:37:19 10° NNW
Cosmos 540 Rocket 3.4 21:28:36 10° NNW 21:33:46 71° WSW 21:34:20 64° SSW
SL-16 R/B 3.5 21:29:54 10° NNW 21:34:49 29° NE 21:36:11 26° ENE
Cosmos 2360 Rocket 4.2 21:31:14 10° N 21:34:59 18° NE 21:37:32 14° ENE
Cosmos 2208 Rocket 4.2 21:30:10 10° NNW 21:35:18 62° WSW 21:36:03 55° SSW
Cosmos 1825 3.1 21:37:21 10° NNW 21:40:28 45° WNW 21:40:28 45° WNW
Cosmos 2322 Rocket 3.5 21:36:56 10° NNW 21:41:45 28° NE 21:43:04 25° ENE
Cosmos 1980 Rocket 2.0 21:37:40 10° NNW 21:43:19 78° ENE 21:43:48 72° ESE
Nadezhda 3 Rocket 3.9 21:41:26 48° SSW 21:43:22 85° WNW 21:49:40 10° N
USA 234 3.1 21:37:06 10° ENE 21:43:39 72° SE 21:50:11 10° SW
Cosmos 2221 4.2 21:46:37 25° NE 21:46:37 25° NE 21:48:48 10° NNE
Cosmos 1814 Rocket 4.3 21:40:17 10° NNW 21:45:34 60° WSW 21:46:08 56° SW
Cosmos-2242 3.7 21:45:30 49° W 21:45:50 51° WNW 21:50:07 10° N
Cosmos 1535 Rocket 4.3 21:39:57 10° N 21:46:09 77° E 21:47:00 66° SE
ASTEX 1 3.4 21:50:00 70° NE 21:50:00 70° NE 21:54:37 10° N
ATLAS 5 CENTAUR R/B 4.0 21:46:42 10° WNW 21:50:26 25° NNW 21:54:38 10° NE
Meteor 2-3 Rocket 3.6 21:49:10 10° NNW 21:54:56 85° W 21:55:21 77° S
Cosmos 2084 4.3 21:53:37 10° NW 21:57:21 48° N 21:57:21 48° N
ATLAS CENTAUR R/B 2.9 21:56:09 10° NW 21:58:21 29° WNW 21:58:21 29° WNW
Mayak 0.2 22:02:43 10° NNE 22:04:58 31° NNE 22:04:58 31° NNE
Terra 2.4 22:08:46 49° W 22:08:46 49° W 22:13:09 10° NNW
SPOT 5 3.9 22:10:53 32° W 22:10:53 32° W 22:14:29 10° NNW
Cosmos 1934 Rocket 3.9 22:04:31 10° NNW 22:10:46 73° W 22:11:27 66° SW
Cosmos 2278 4.0 22:08:56 10° NW 22:14:24 54° WSW 22:14:24 54° WSW
Cosmos 2082 Rocket 2.2 22:15:56 74° NE 22:15:56 74° NE 22:21:05 10° NNE
Cosmos 1833 Rocket 3.1 22:20:38 47° WSW 22:21:57 59° NW 22:27:33 10° NNE
Cosmos 1605 Rocket 3.9 22:23:03 10° NNW 22:29:13 80° W 22:29:21 79° WSW
Cosmos 2219 Rocket 4.4 22:28:22 10° N 22:32:07 18° NE 22:34:42 13° ENE
Cosmos 2344 4.3 22:25:18 10° NW 22:34:45 77° SW 22:38:35 50° SSE
ALOS 2 4.1 22:36:50 32° NNE 22:36:50 32° NNE 22:39:32 10° N
NOSS 2-1 (D) 4.5 22:36:33 10° NW 22:41:11 61° NNE 22:41:11 61° NNE
Cosmos 1339 Rocket 4.5 22:42:33 77° WSW 22:42:47 78° WNW 22:49:14 10° N
CZ-4C R/B 3.3 22:39:45 10° NW 22:46:40 51° WSW 22:46:59 50° SW
COSMOS 2428 4.5 22:57:18 10° NNW 23:01:52 24° NE 23:03:37 21° ENE
Cosmos 1607 4.1 23:12:04 68° NW 23:12:10 68° NW 23:18:25 10° NE
Thor Agena Rocket 4.5 23:12:35 10° N 23:16:56 42° NW 23:16:56 42° NW
SL-16 R/B 2.8 23:13:45 10° NNW 23:18:02 49° WNW 23:18:02 49° WNW
Cosmos 2360 Rocket 2.7 23:14:31 10° NNW 23:19:17 57° NNE 23:19:17 57° NNE
Cosmos 2322 Rocket 2.9 23:20:42 10° NNW 23:24:52 49° NW 23:24:52 49° NW
USA 234 3.7 23:20:12 10° ENE 23:26:36 59° NNW 23:33:00 10° W
Cosmos 1980 Rocket 4.1 23:22:45 10° NW 23:25:34 19° W 23:25:34 19° W
Cosmos 2061 Rocket 4.1 23:25:07 10° N 23:30:49 74° N 23:30:49 74° N
Cosmos 1459 Rocket 4.2 23:30:30 10° NNW 23:36:11 63° WNW 23:36:11 63° WNW
MOS 1-B Rocket 4.2 23:34:24 10° NNE 23:40:21 73° ENE 23:40:21 73° ENE
Mayak 1.3 23:39:29 10° NNW 23:41:32 15° NW 23:41:32 15° NW
Cosmos 2333 Rocket 3.1 23:37:00 10° NNW 23:42:23 42° NE 23:42:25 42° NE
Cosmos 2237 Rocket 4.3 23:38:43 10° N 23:43:01 21° NE 23:46:25 13° E
Cosmos 2233 Rocket 4.3 23:42:02 10° N 23:47:50 60° ENE 23:47:50 60° ENE
SL-16 R/B 4.2 23:48:43 20° E 23:51:06 25° NE 23:56:01 10° N
